Starlink 31685

operational
NORAD ID: 59578 Int'l Des: 2024-076 Owner: SPXS Country: US Constellation: starlink
LEOCIRCULAR

About Starlink 31685

Description loading...

Live Position

Loading 3D Globe...

Upcoming Passes

Altitude History

Altitude vs Time

uPlot chart will show altitude changes over time

Two-Line Element Set

1 59578U 24076Q 25353.57030359 .00000415 00000-0 24603-4 0 9992
2 59578 43.0001 101.0989 0001269 238.6365 121.4362 15.27575823 94257
Epoch: Dec 19, 2025 • Age: 16 hours

Current Status

Altitude 485.5 km
Velocity 7.62 km/s
Sub-Earth Point -13.02°S, 85.35°W
Launch Date Apr 23, 2024
Age 1.6 years
Type internet

Technical Details

Classification Payload
Mass 730.00 kg
Dry Mass 700.00 kg
Total Mass 730.00 kg
Length 0.30 m
Diameter 4.10 m
Span 29.00 m
Shape Box + pan
Manufacturer SPXS
Bus Type Starlink V2M
Phase Status In Orbit
Owner/State SPXS/US

Large Constellations

Loading constellations...